YAOGAN-27

Last updated on Mon Sep 21 2026 00:02:46 GMT+0000 (Coordinated Universal Time)

1 40878U 15040A 26263.58650416 -.00000404 00000+0 -95101-3 0 9999 2 40878 100.1281 245.8699 0008385 359.6685 0.4422 13.16073442530215
UTC large
Height (km)
Speed (km/s)
/
Latitude / Longitude
Inclination (degrees)
Orbital Period (minutes)
Azimuth
Elevation
Range (km)
Doppler Factor

Next 0 passes for location: London (51.5072 / 0.1276)

No passes found over London.
YAOGAN-27